Weather History for Melilla, Spain

Change the Weather History Date:

Tuesday, November 1, 2011

  Actual Average Record
Temperature  
Mean Temperature 66 °F -  
Max Temperature 72 °F 69 °F 89 °F (2006)
Min Temperature 61 °F 57 °F 57 °F (2000)
Cooling Degree Days 2    
Growing Degree Days 16 (Base 50)    
Moisture  
Dew Point 62 °F    
Average Humidity 80    
Maximum Humidity 94    
Minimum Humidity 64    
Precipitation  
Precipitation 0.00 in 0.05 in - ()
Sea Level Pressure  
Sea Level Pressure 30.04 in    
Wind  
Wind Speed 4 mph ()    
Max Wind Speed 9 mph    
Max Gust Speed -    
Visibility 6.3 miles    
Events      
Averages and records for this station are not official NWS values.
T = Trace of Precipitation, MM = Missing Value Source: Averaged Metar Reports

Daily Weather History Graph

Daily Weather History Graph

Search for Another Location

Airport:

Trip Planner

Search our weather history database for the weather conditions in past years. The results will help you decide how hot, cold, wet, or windy it might be!

Date:

Astronomy

Nov. 01, 2011 Rise Set
Actual Time 7:32 AM CET 6:17 PM CET
Civil Twilight 7:06 AM CET 6:43 PM CET
Nautical Twilight 6:36 AM CET 7:13 PM CET
Astronomical Twilight 6:06 AM CET 7:43 PM CET
Moon 1:07 PM CET 11:46 PM CET
Length of Visible Light 11h 37m
Length of Day
10h 44m
Waxing Crescent, 37% of the Moon is Illuminated
Nov 1
Waxing Crescent
Nov 2
First Quarter
Nov 10
Full
Nov 18
Last Quarter
Nov 25
New

Hourly Weather History & Observations

Time (CET) Temp. Dew Point Humidity Pressure Visibility Wind Dir Wind Speed Gust Speed Precip Events Conditions
6:00 AM 62.6 °F 60.8 °F 94% 30.04 in 3.7 mi West 1.2 mph - N/A   Unknown
6:30 AM 62.6 °F 60.8 °F 94% 30.04 in 5.0 mi West 2.3 mph - N/A   Partly Cloudy
7:00 AM 63 °F 61 °F 91% 30.03 in 7 mi West 4.6 mph - -   Clear
7:00 AM 64.4 °F 62.6 °F 94% 30.04 in - West 4.6 mph - N/A   Clear
7:30 AM 62.6 °F 60.8 °F 94% 30.04 in 4.3 mi WNW 9.2 mph - N/A   Unknown
8:00 AM 64.4 °F 60.8 °F 88% 30.06 in 4.3 mi West 5.8 mph - N/A   Unknown
8:30 AM 64.4 °F 62.6 °F 94% 30.06 in 4.3 mi Variable 1.2 mph - N/A   Unknown
9:00 AM 66.2 °F 62.6 °F 88% 30.06 in 4.3 mi Calm Calm - N/A   Unknown
9:30 AM 68.0 °F 62.6 °F 83% 30.06 in - WSW 5.8 mph - N/A   Clear
10:00 AM 68.0 °F 62.6 °F 83% 30.09 in - West 8.1 mph - N/A   Clear
10:30 AM 69.8 °F 60.8 °F 73% 30.09 in 6.2 mi West 9.2 mph - N/A   Partly Cloudy
11:00 AM 69.8 °F 62.6 °F 78% 30.09 in 6.2 mi West 9.2 mph - N/A   Partly Cloudy
11:30 AM 71.6 °F 62.6 °F 73% 30.09 in 6.2 mi WNW 6.9 mph - N/A   Partly Cloudy
12:00 PM 71.6 °F 62.6 °F 73% 30.06 in 6.2 mi WNW 5.8 mph - N/A   Partly Cloudy
12:30 PM 73.4 °F 62.6 °F 69% 30.06 in 6.2 mi WNW 3.5 mph - N/A   Partly Cloudy
1:00 PM 72 °F 62 °F 64% 30.04 in 19 mi NW 3.5 mph - -   Scattered Clouds
1:00 PM 73.4 °F 62.6 °F 69% 30.06 in 6.2 mi NW 3.5 mph - N/A   Partly Cloudy
1:30 PM 71.6 °F 64.4 °F 78% 30.04 in 6.2 mi NE 6.9 mph - N/A   Partly Cloudy
2:00 PM 71.6 °F 62.6 °F 73% 30.04 in 6.2 mi NE 5.8 mph - N/A   Partly Cloudy
2:30 PM 71.6 °F 62.6 °F 73% 30.01 in 6.2 mi NNE 4.6 mph - N/A   Partly Cloudy
3:00 PM 71.6 °F 62.6 °F 73% 30.01 in 6.2 mi NNE 5.8 mph - N/A   Partly Cloudy
3:30 PM 71.6 °F 62.6 °F 73% 30.01 in 6.2 mi NNE 5.8 mph - N/A   Partly Cloudy
4:00 PM 71.6 °F 62.6 °F 73% 30.01 in 6.2 mi NNE 4.6 mph - N/A   Partly Cloudy
4:30 PM 71.6 °F 64.4 °F 78% 30.01 in 6.2 mi North 4.6 mph - N/A   Partly Cloudy
5:00 PM 69.8 °F 62.6 °F 78% 30.01 in 6.2 mi North 3.5 mph - N/A   Partly Cloudy
5:30 PM 69.8 °F 62.6 °F 78% 30.01 in 6.2 mi North 2.3 mph - N/A   Partly Cloudy
6:00 PM 69.8 °F 64.4 °F 83% 30.04 in 6.2 mi North 3.5 mph - N/A   Partly Cloudy
6:30 PM 68.0 °F 62.6 °F 83% 30.04 in 6.2 mi NW 6.9 mph - N/A   Scattered Clouds
7:00 PM 67 °F 63 °F 82% 30.02 in 7 mi NW 4.6 mph - -   Mostly Cloudy
7:00 PM 68.0 °F 62.6 °F 83% 30.04 in 6.2 mi NW 4.6 mph - N/A   Mostly Cloudy